Location: Bratislava
(0.0000°N, 17.1167°E)
Time: 04:49:01
(UTC+01:00)

Cosmos 1408 - Pass Details

Date: 24 January 2021
Orbit: 469 x 491 km, 82.6° (Epoch: 06 March)

Event Time Altitude Azimuth Distance (km) Brightness Sun altitude
Rises 19:09:15 0° 178° (S) 2,541 6.5 -15.5°
Reaches altitude 10° 19:11:22 10° 174° (S) 1,655 5.4 -16.0°
Maximum altitude 19:14:56 59° 94° (E) 553 2.5 -16.8°
Enters shadow 19:16:27 31° 26° (NNE) 859 3.4 -17.1°
